TimeMDT,TemperatureF,Dew PointF,Humidity,Sea Level PressureIn,VisibilityMPH,Wind Direction,Wind SpeedMPH,Gust SpeedMPH,PrecipitationIn,Events,Conditions,WindDirDegrees,DateUTC
12:53 AM,7.0,3.0,84,30.26,10.0,East,9.2,-,N/A,,Clear,90,2013-03-26 06:53:00
1:53 AM,5.0,1.0,84,30.25,10.0,East,9.2,-,N/A,,Clear,80,2013-03-26 07:53:00
2:53 AM,3.9,-0.0,84,30.22,10.0,ENE,8.1,-,N/A,,Clear,70,2013-03-26 08:53:00
3:53 AM,3.9,-0.0,84,30.20,10.0,East,9.2,-,N/A,,Clear,90,2013-03-26 09:53:00
4:53 AM,5.0,1.0,84,30.19,10.0,East,10.4,-,N/A,,Clear,80,2013-03-26 10:53:00
5:53 AM,3.0,-2.0,80,30.18,10.0,East,9.2,-,N/A,,Clear,80,2013-03-26 11:53:00
6:53 AM,3.0,-0.9,84,30.19,10.0,ENE,6.9,-,N/A,,Clear,70,2013-03-26 12:53:00
7:53 AM,3.0,-0.9,84,30.20,10.0,East,8.1,-,N/A,,Clear,80,2013-03-26 13:53:00
8:53 AM,8.1,3.0,80,30.19,10.0,East,8.1,-,N/A,,Clear,80,2013-03-26 14:53:00
9:53 AM,12.9,7.0,77,30.18,10.0,ENE,9.2,-,N/A,,Clear,70,2013-03-26 15:53:00
10:53 AM,17.1,10.0,74,30.18,10.0,East,8.1,-,N/A,,Clear,80,2013-03-26 16:53:00
11:53 AM,19.9,12.9,74,30.17,10.0,East,6.9,-,N/A,,Clear,80,2013-03-26 17:53:00
12:53 PM,23.0,16.0,74,30.17,10.0,ENE,6.9,-,N/A,,Clear,60,2013-03-26 18:53:00
1:53 PM,27.0,18.0,69,30.16,10.0,ENE,3.5,-,N/A,,Clear,60,2013-03-26 19:53:00
2:53 PM,28.0,19.0,69,30.16,10.0,ENE,5.8,-,N/A,,Clear,60,2013-03-26 20:53:00
3:53 PM,30.0,19.9,66,30.15,10.0,NE,4.6,-,N/A,,Clear,40,2013-03-26 21:53:00
4:53 PM,30.9,19.9,64,30.15,10.0,NE,4.6,-,N/A,,Clear,40,2013-03-26 22:53:00
5:53 PM,30.0,19.9,66,30.16,10.0,NNE,4.6,-,N/A,,Clear,30,2013-03-26 23:53:00
6:53 PM,26.1,19.0,75,30.17,10.0,North,3.5,-,N/A,,Clear,350,2013-03-27 00:53:00
7:53 PM,19.9,16.0,85,30.19,10.0,Calm,Calm,-,N/A,,Clear,0,2013-03-27 01:53:00
8:53 PM,17.1,12.9,84,30.20,10.0,Calm,Calm,-,N/A,,Clear,0,2013-03-27 02:53:00
9:53 PM,16.0,10.9,81,30.20,10.0,Calm,Calm,-,N/A,,Clear,0,2013-03-27 03:53:00
10:53 PM,12.0,8.1,84,30.20,10.0,Calm,Calm,-,N/A,,Clear,0,2013-03-27 04:53:00
11:53 PM,9.0,5.0,84,30.20,10.0,Calm,Calm,-,N/A,,Clear,0,2013-03-27 05:53:00